Home   Weather   Des Moines   Past weeks
Flag for USA

Past Weather in Des Moines, Iowa, USA — Yesterday and Last 2 Weeks

Now
50 °F

Clear.


Feels Like: 48 °F
Forecast: 57 / 43 °F
Wind: 6 mph from Southwest

Location: Des Moines International Airport

Current Time: Oct 15, 2019 at 6:42:29 am

Latest Report: Oct 15, 2019 at 5:54 am


Visibility: 10 mi

Pressure: 29.78 "Hg

Humidity: 86%

Dew Point: 46 °F

Location of Des MoinesLocation

Past Weather in Des Moines — Graph

°F

Des Moines Temperature Yesterday

Maximum temperature yesterday: 62 °F (at 3:54 pm)
Minimum temperature yesterday: 33 °F (at 7:54 am)
Average temperature yesterday: 48 °F

High & Low Weather Summary for the Past Weeks

 TemperatureHumidityPressure
High87 °F (Sep 30, 1:54 pm)97% (Oct 1, 6:21 pm)30.43 "Hg (Oct 1, 6:21 pm)
Low30 °F (Oct 12, 2:54 am)28% (Oct 7, 3:54 pm)29.70 "Hg (Oct 10, 4:54 pm)
Average55 °F74%29.99 "Hg
* Reported Sep 30 4:54 am — Oct 15 4:54 am, Des Moines. Weather by CustomWeather, © 2019

Note: Actual official high and low records may vary slightly from our data, if they occured in-between our weather recording intervals... More about our weather records

Advertising

Des Moines Weather History for the Previous 24 Hours

Scroll right to see more
 ConditionsComfort  
Time TempWeatherWind HumidityBarometerVisibility
4:54 am
Tue, Oct 15
47 °FPassing clouds.7 mph86%29.78 "Hg10 mi
3:54 am48 °FPassing clouds.8 mph80%29.78 "Hg10 mi
2:54 am48 °FClear.9 mph80%29.80 "Hg10 mi
1:54 am50 °FClear.9 mph71%29.82 "Hg10 mi
12:54 am50 °FPassing clouds.8 mph68%29.84 "Hg10 mi
11:54 pm
Mon, Oct 14
50 °FClear.8 mph68%29.86 "Hg10 mi
10:54 pm51 °FClear.7 mph66%29.88 "Hg10 mi
9:54 pm51 °FPassing clouds.10 mph66%29.89 "Hg10 mi
8:54 pm53 °FClear.9 mph59%29.89 "Hg10 mi
7:54 pm56 °FClear.10 mph53%29.91 "Hg10 mi
6:54 pm58 °FPassing clouds.9 mph47%29.90 "Hg10 mi
5:54 pm61 °FPassing clouds.14 mph42%29.91 "Hg10 mi
4:54 pm62 °FPassing clouds.13 mph38%29.92 "Hg10 mi
3:54 pm62 °FPassing clouds.12 mph39%29.94 "Hg10 mi
2:54 pm60 °FScattered clouds.10 mph42%29.98 "Hg10 mi
1:54 pm58 °FScattered clouds.13 mph46%30.02 "Hg10 mi
12:54 pm55 °FPassing clouds.8 mph51%30.04 "Hg10 mi
11:54 am52 °FPassing clouds.9 mph55%30.07 "Hg10 mi
10:54 am47 °FPassing clouds.6 mph66%30.09 "Hg10 mi
9:54 am43 °FScattered clouds.5 mph71%30.10 "Hg10 mi
8:54 am37 °FPassing clouds.No wind89%30.10 "Hg10 mi
7:54 am33 °FFog.3 mph88%30.08 "Hg10 mi
6:54 am35 °FPassing clouds.No wind85%30.08 "Hg10 mi
Weather by CustomWeather, © 2019

See weather overview